Tracking 21992 objects as of 26-Nov-2020
HD Live streaming from Space Station
objects crossing your sky now

YAOGAN-30 U

Track YAOGAN-30 U now!
10-day predictions


NORAD ID: 46807
Int'l Code: 2020-076A
Perigee: 605.2 km
Apogee: 606.1 km
Inclination: 35.0 °
Period: 96.7 minutes
Semi major axis: 6976 km
RCS: Unknown
Launch date: October 26, 2020
Source: People's Republic of China (PRC)
Launch site: Xichang Space Center, China (XSC)
aabbcc
Your satellite tracking list
Your tracking list is empty




NASA's NSSDC Master Catalog

Two Line Element Set (TLE):
1 46807U 20076A   20331.20720119  .00000345  00000-0  38012-4 0  9991
2 46807  34.9976  58.6196 0000590 267.4481  92.6159 14.89812892  4554
Source of the keplerian elements: AFSPC